• In Hungary
  • List of Countries
  • For 7 days
  • Water Temperature
  • Satellite Maps
  • Weather Map
  • News
  • Weather Widgets
  • user-avatar
    Login

    Hourly Weather Kirkenes

    Today, 22 November, Wednesday

    Time Temperature Precipitation Wind Pressure Humidity
    00:00 -13°C° 0 mm 1 mps 755 mmHg 88%
    01:00 -13°C° 0 mm 1 mps 755 mmHg 88%
    02:00 -14°C° 0 mm 1 mps 755 mmHg 84%
    03:00 -14°C° 0 mm 1 mps 755 mmHg 84%
    04:00 -13°C° 0 mm 1 mps 755 mmHg 83%
    05:00 -13°C° 0 mm 1 mps 755 mmHg 83%
    06:00 -13°C° 0 mm 1 mps 755 mmHg 84%
    07:00 -13°C° 0 mm 1 mps 755 mmHg 84%
    08:00 -13°C° 0 mm 1 mps 755 mmHg 86%
    09:00 -13°C° 0 mm 1 mps 755 mmHg 87%
    10:00 -12°C° 0 mm 1 mps 755 mmHg 89%
    11:00 -12°C° 0 mm 1 mps 755 mmHg 90%
    12:00 -12°C° 0 mm 1 mps 755 mmHg 91%
    13:00 -13°C° 0 mm 1 mps 755 mmHg 92%
    14:00 -13°C° 0 mm 1 mps 755 mmHg 93%
    15:00 -12°C° 0 mm 1 mps 755 mmHg 93%
    16:00 -12°C° 0 mm 1 mps 756 mmHg 94%
    17:00 -12°C° 0 mm 1 mps 756 mmHg 94%
    18:00 -12°C° 0 mm 1 mps 756 mmHg 95%
    19:00 -12°C° 0 mm 0 mps 756 mmHg 95%
    20:00 -12°C° 0 mm 0 mps 756 mmHg 96%
    21:00 -12°C° 0 mm 0 mps 756 mmHg 96%
    22:00 -12°C° 0 mm 0 mps 756 mmHg 96%
    23:00 -12°C° 0 mm 0 mps 756 mmHg 96%

    Tomorrow, 23 November, Thursday

    Time Temperature Precipitation Wind Pressure Humidity
    00:00 -11°C° 0 mm 1 mps 756 mmHg 96%
    01:00 -11°C° 0 mm 1 mps 756 mmHg 96%
    02:00 -11°C° 0 mm 1 mps 756 mmHg 96%
    03:00 -11°C° 0 mm 1 mps 755 mmHg 96%
    04:00 -12°C° 0 mm 1 mps 755 mmHg 97%
    05:00 -12°C° 0 mm 1 mps 755 mmHg 97%
    06:00 -12°C° 0 mm 1 mps 755 mmHg 97%
    07:00 -12°C° 0 mm 1 mps 755 mmHg 97%
    08:00 -12°C° 0 mm 1 mps 755 mmHg 97%
    09:00 -12°C° 0 mm 1 mps 755 mmHg 97%
    10:00 -14°C° 0 mm 2 mps 755 mmHg 97%
    11:00 -14°C° 0 mm 2 mps 755 mmHg 96%
    12:00 -14°C° 0 mm 2 mps 755 mmHg 96%
    13:00 -14°C° 0 mm 2 mps 755 mmHg 96%
    14:00 -15°C° 0 mm 2 mps 755 mmHg 96%
    15:00 -15°C° 0 mm 2 mps 755 mmHg 96%
    16:00 -15°C° 0 mm 2 mps 754 mmHg 95%
    17:00 -15°C° 0 mm 2 mps 754 mmHg 95%
    18:00 -16°C° 0 mm 3 mps 754 mmHg 93%
    19:00 -16°C° 0 mm 3 mps 754 mmHg 91%
    20:00 -16°C° 0 mm 3 mps 754 mmHg 89%
    21:00 -16°C° 0 mm 4 mps 753 mmHg 87%
    22:00 -16°C° 0 mm 4 mps 753 mmHg 86%
    23:00 -17°C° 0 mm 5 mps 752 mmHg 84%

    Day after tomorrow, 24 November, Friday

    Time Temperature Precipitation Wind Pressure Humidity
    00:00 -15°C° 0 mm 5 mps 752 mmHg 84%
    01:00 -15°C° 0 mm 6 mps 752 mmHg 84%
    02:00 -15°C° 0 mm 7 mps 751 mmHg 85%
    03:00 -14°C° 0.1 mm 7 mps 751 mmHg 85%
    04:00 -15°C° 0.1 mm 8 mps 750 mmHg 86%
    05:00 -13°C° 0.1 mm 8 mps 750 mmHg 86%
    06:00 -14°C° 0.2 mm 9 mps 749 mmHg 86%
    07:00 -14°C° 0.2 mm 9 mps 749 mmHg 87%
    08:00 -13°C° 0.2 mm 10 mps 748 mmHg 87%
    09:00 -13°C° 0.2 mm 10 mps 748 mmHg 87%
    10:00 -13°C° 0.2 mm 10 mps 748 mmHg 86%
    11:00 -12°C° 0.2 mm 11 mps 747 mmHg 86%
    12:00 -12°C° 0.4 mm 11 mps 747 mmHg 88%
    13:00 -12°C° 0.4 mm 11 mps 746 mmHg 89%
    14:00 -12°C° 0.4 mm 11 mps 746 mmHg 90%
    15:00 -12°C° 0.4 mm 11 mps 746 mmHg 90%
    16:00 -12°C° 0.4 mm 11 mps 745 mmHg 90%
    17:00 -12°C° 0.4 mm 11 mps 745 mmHg 90%
    18:00 -12°C° 0.4 mm 11 mps 744 mmHg 91%
    19:00 -12°C° 0.4 mm 10 mps 744 mmHg 91%
    20:00 -10°C° 0.4 mm 10 mps 744 mmHg 91%
    21:00 -10°C° 0.3 mm 9 mps 743 mmHg 92%
    22:00 -10°C° 0.3 mm 8 mps 743 mmHg 92%
    23:00 -10°C° 0.3 mm 8 mps 743 mmHg 92%

    25 November, Saturday

    Time Temperature Precipitation Wind Pressure Humidity
    00:00 -8°C° 0.2 mm 7 mps 743 mmHg 92%
    01:00 -8°C° 0.2 mm 7 mps 743 mmHg 92%
    02:00 -8°C° 0.2 mm 6 mps 742 mmHg 92%
    03:00 -8°C° 0.1 mm 6 mps 742 mmHg 92%
    04:00 -7°C° 0.1 mm 5 mps 742 mmHg 92%
    05:00 -7°C° 0.1 mm 5 mps 741 mmHg 92%
    06:00 -7°C° 0 mm 5 mps 741 mmHg 93%
    07:00 -7°C° 0 mm 4 mps 741 mmHg 93%
    08:00 -8°C° 0 mm 4 mps 741 mmHg 94%
    09:00 -7°C° 0.1 mm 4 mps 740 mmHg 94%
    10:00 -7°C° 0.1 mm 4 mps 740 mmHg 94%
    11:00 -7°C° 0.1 mm 4 mps 740 mmHg 95%
    12:00 -7°C° 0.5 mm 4 mps 739 mmHg 95%
    13:00 -5°C° 0.5 mm 4 mps 739 mmHg 96%
    14:00 -6°C° 0.5 mm 5 mps 738 mmHg 96%
    15:00 -5°C° 0.7 mm 4 mps 738 mmHg 96%
    16:00 -4°C° 0.7 mm 4 mps 737 mmHg 96%
    17:00 -4°C° 0.7 mm 3 mps 737 mmHg 97%
    18:00 -4°C° 0.3 mm 3 mps 736 mmHg 97%
    19:00 -4°C° 0.3 mm 2 mps 736 mmHg 97%
    20:00 -4°C° 0.3 mm 2 mps 736 mmHg 97%
    21:00 -4°C° 0.1 mm 2 mps 736 mmHg 96%
    22:00 -5°C° 0.1 mm 3 mps 737 mmHg 96%
    23:00 -5°C° 0.1 mm 4 mps 737 mmHg 95%

    26 November, Sunday

    Time Temperature Precipitation Wind Pressure Humidity
    00:00 -5°C° 0.1 mm 4 mps 737 mmHg 94%
    01:00 -6°C° 0.1 mm 5 mps 738 mmHg 94%
    02:00 -7°C° 0.1 mm 5 mps 738 mmHg 93%
    03:00 -8°C° 0 mm 5 mps 738 mmHg 93%
    04:00 -10°C° 0 mm 5 mps 738 mmHg 93%
    05:00 -10°C° 0 mm 4 mps 738 mmHg 93%
    06:00 -10°C° 0 mm 4 mps 738 mmHg 93%
    07:00 -11°C° 0 mm 4 mps 739 mmHg 93%
    08:00 -11°C° 0 mm 4 mps 739 mmHg 94%
    09:00 -11°C° 0 mm 4 mps 739 mmHg 94%
    10:00 -12°C° 0 mm 3 mps 739 mmHg 94%
    11:00 -12°C° 0 mm 3 mps 739 mmHg 94%
    12:00 -12°C° 0 mm 2 mps 739 mmHg 94%
    13:00 -12°C° 0 mm 2 mps 738 mmHg 94%
    14:00 -12°C° 0 mm 2 mps 738 mmHg 95%
    15:00 -10°C° 0 mm 1 mps 738 mmHg 95%
    16:00 -10°C° 0 mm 1 mps 738 mmHg 95%
    17:00 -10°C° 0 mm 1 mps 737 mmHg 95%
    18:00 -10°C° 0 mm 2 mps 737 mmHg 95%
    19:00 -10°C° 0 mm 2 mps 736 mmHg 94%
    20:00 -9°C° 0 mm 2 mps 735 mmHg 93%
    21:00 -10°C° 0.4 mm 4 mps 735 mmHg 94%
    22:00 -10°C° 0.4 mm 5 mps 734 mmHg 95%
    23:00 -9°C° 0.4 mm 6 mps 733 mmHg 95%

    27 November, Monday

    Time Temperature Precipitation Wind Pressure Humidity
    00:00 -8°C° 0.7 mm 6 mps 732 mmHg 95%
    01:00 -6°C° 0.7 mm 5 mps 731 mmHg 95%
    02:00 -5°C° 0.7 mm 5 mps 730 mmHg 94%
    03:00 -5°C° 0.3 mm 5 mps 730 mmHg 95%
    04:00 -4°C° 0.3 mm 4 mps 730 mmHg 95%
    05:00 -5°C° 0.3 mm 4 mps 729 mmHg 96%
    06:00 -5°C° 0.2 mm 4 mps 729 mmHg 95%
    07:00 -6°C° 0.2 mm 5 mps 729 mmHg 95%
    08:00 -6°C° 0.2 mm 5 mps 729 mmHg 94%
    09:00 -6°C° 0.2 mm 6 mps 729 mmHg 93%
    10:00 -5°C° 0.2 mm 6 mps 729 mmHg 93%
    11:00 -6°C° 0.2 mm 7 mps 730 mmHg 92%
    12:00 -6°C° 0.3 mm 8 mps 730 mmHg 91%
    13:00 -5°C° 0.3 mm 9 mps 731 mmHg 89%
    14:00 -5°C° 0.3 mm 9 mps 731 mmHg 88%
    15:00 -5°C° 0.1 mm 9 mps 732 mmHg 88%
    16:00 -6°C° 0.1 mm 9 mps 733 mmHg 88%
    17:00 -6°C° 0.1 mm 9 mps 733 mmHg 88%
    18:00 -8°C° 0 mm 9 mps 734 mmHg 88%
    19:00 -8°C° 0 mm 9 mps 735 mmHg 88%
    20:00 -8°C° 0 mm 8 mps 736 mmHg 88%
    21:00 -9°C° 0 mm 7 mps 736 mmHg 88%
    22:00 -11°C° 0 mm 7 mps 737 mmHg 89%
    23:00 -12°C° 0 mm 6 mps 737 mmHg 89%
    Show more